Location: Mouss�
(47.9236°N, 1.2701°W)
Time: 07:50:35
(UTC+00:00)

Cosmos 2278 Rocket - Pass Details

Date: 03 March 2021
Orbit: 841 x 845 km, 71.0° (Epoch: 13 April)

Event Time Altitude Azimuth Distance (km) Brightness Sun altitude
Rises 20:22:59 0° 334° (NNW) 3,415 6.0 -25.6°
Reaches altitude 10° 20:25:28 10° 337° (NNW) 2,476 5.1 -26.0°
Enters shadow 20:30:45 61° 39° (NE) 955 2.3 -26.8°
